| time (UTC) | temp C | wind direction | speed KPH | gust KPH | rain 1hr cm | rain 24hr cm | rain mn cm | humidity % | barometer mb |
| 20260504090116 | 29 | 281 | 19.3 | 24.1 | 0.00 | 0.00 | 0.00 | 57 | 1007.0 |
| 20260504081613 | 36 | 17 | 8.0 | 11.3 | 0.00 | 0.00 | 0.00 | 52 | 1006.0 |
| 20260504081113 | 36 | 177 | 6.4 | 11.3 | 0.00 | 0.00 | 0.00 | 52 | 1007.0 |
| 20260504080612 | 36 | 160 | 11.3 | 14.5 | 0.00 | 0.00 | 0.00 | 53 | 1007.0 |
| 20260504080112 | 36 | 189 | 3.2 | 4.8 | 0.00 | 0.00 | 0.00 | 54 | 1007.0 |
| 20260504070113 | 35 | 171 | 8.0 | 11.3 | 0.00 | 0.00 | 0.00 | 56 | 1009.0 |
| 20260504060112 | 34 | 180 | 0.0 | 0.0 | 0.00 | 0.00 | 0.00 | 57 | 1010.0 |
| 20260504050612 | 33 | 225 | 8.0 | 11.3 | 0.00 | 0.00 | 0.00 | 61 | 1010.0 |
| 20260504050113 | 32 | 208 | 1.6 | 1.6 | 0.00 | 0.00 | 0.00 | 61 | 1010.0 |
| 20260504045613 | 32 | 232 | 3.2 | 3.2 | 0.00 | 0.00 | 0.00 | 63 | 1010.0 |
| 20260504045111 | 32 | 116 | 3.2 | 3.2 | 0.00 | 0.00 | 0.00 | 63 | 1010.0 |
| 20260504044611 | 32 | 216 | 6.4 | 6.4 | 0.00 | 0.00 | 0.00 | 61 | 1010.0 |
| 20260504044111 | 32 | 232 | 9.7 | 12.9 | 0.00 | 0.00 | 0.00 | 62 | 1010.0 |
| 20260504043611 | 32 | 241 | 6.4 | 9.7 | 0.00 | 0.00 | 0.00 | 62 | 1010.0 |
| 20260504043112 | 31 | 150 | 6.4 | 6.4 | 0.00 | 0.00 | 0.00 | 64 | 1010.0 |
| 20260504042613 | 31 | 159 | 6.4 | 9.7 | 0.00 | 0.00 | 0.00 | 64 | 1010.0 |
| 20260504042114 | 31 | 176 | 4.8 | 4.8 | 0.00 | 0.00 | 0.00 | 64 | 1010.0 |
| 20260504041615 | 31 | 148 | 9.7 | 12.9 | 0.00 | 0.00 | 0.00 | 65 | 1011.0 |
| 20260504041111 | 31 | 140 | 8.0 | 11.3 | 0.00 | 0.00 | 0.00 | 64 | 1010.0 |
| 20260504040612 | 31 | 204 | 8.0 | 9.7 | 0.00 | 0.00 | 0.00 | 63 | 1010.0 |
| 20260504040111 | 31 | 136 | 4.8 | 4.8 | 0.00 | 0.00 | 0.00 | 64 | 1010.0 |
| 20260504035612 | 31 | 216 | 4.8 | 6.4 | 0.00 | 0.00 | 0.00 | 64 | 1010.0 |
| 20260504035111 | 31 | 181 | 1.6 | 1.6 | 0.00 | 0.00 | 0.00 | 65 | 1011.0 |
| 20260504034611 | 30 | 137 | 4.8 | 4.8 | 0.00 | 0.00 | 0.00 | 66 | 1011.0 |
| 20260504034111 | 31 | 161 | 9.7 | 11.3 | 0.00 | 0.00 | 0.00 | 65 | 1011.0 |
| 20260504033611 | 31 | 223 | 1.6 | 1.6 | 0.00 | 0.00 | 0.00 | 64 | 1011.0 |
| 20260504033113 | 30 | 173 | 6.4 | 9.7 | 0.00 | 0.00 | 0.00 | 65 | 1011.0 |
| 20260504032611 | 30 | 168 | 3.2 | 3.2 | 0.00 | 0.00 | 0.00 | 67 | 1011.0 |
| 20260504032111 | 30 | 178 | 6.4 | 11.3 | 0.00 | 0.00 | 0.00 | 67 | 1011.0 |
| 20260504031611 | 30 | 188 | 0.0 | 1.6 | 0.00 | 0.00 | 0.00 | 66 | 1011.0 |
| 20260504031114 | 30 | 103 | 3.2 | 3.2 | 0.00 | 0.00 | 0.00 | 65 | 1011.0 |
| 20260504030611 | 29 | 154 | 3.2 | 4.8 | 0.00 | 0.00 | 0.00 | 65 | 1010.0 |
| 20260504030111 | 30 | 187 | 4.8 | 6.4 | 0.00 | 0.00 | 0.00 | 65 | 1010.0 |
| 20260504025611 | 29 | 158 | 4.8 | 4.8 | 0.00 | 0.00 | 0.00 | 65 | 1010.0 |
| 20260504025111 | 28 | 171 | 3.2 | 3.2 | 0.00 | 0.00 | 0.00 | 67 | 1010.0 |
| 20260504024611 | 29 | 171 | 6.4 | 6.4 | 0.00 | 0.00 | 0.00 | 67 | 1010.0 |
| 20260504024111 | 28 | 128 | 3.2 | 4.8 | 0.00 | 0.00 | 0.00 | 68 | 1010.0 |
| 20260504023611 | 28 | 153 | 1.6 | 3.2 | 0.00 | 0.00 | 0.00 | 68 | 1010.0 |
| 20260504023112 | 28 | 176 | 4.8 | 4.8 | 0.00 | 0.00 | 0.00 | 69 | 1010.0 |
| 20260504022611 | 27 | 181 | 0.0 | 1.6 | 0.00 | 0.00 | 0.00 | 70 | 1010.0 |
| 20260504022111 | 27 | 134 | 1.6 | 1.6 | 0.00 | 0.00 | 0.00 | 71 | 1010.0 |
| 20260504021611 | 27 | 145 | 1.6 | 1.6 | 0.00 | 0.00 | 0.00 | 72 | 1010.0 |
| 20260504021112 | 27 | 105 | 9.7 | 11.3 | 0.00 | 0.00 | 0.00 | 72 | 1010.0 |
| 20260504020612 | 27 | 127 | 3.2 | 3.2 | 0.00 | 0.00 | 0.00 | 72 | 1010.0 |
| 20260504020112 | 27 | 116 | 4.8 | 4.8 | 0.00 | 0.00 | 0.00 | 72 | 1010.0 |
| 20260504015612 | 27 | 176 | 1.6 | 1.6 | 0.00 | 0.00 | 0.00 | 73 | 1010.0 |
| 20260504015112 | 26 | 144 | 8.0 | 9.7 | 0.00 | 0.00 | 0.00 | 74 | 1010.0 |
| 20260504014611 | 26 | 117 | 4.8 | 6.4 | 0.00 | 0.00 | 0.00 | 75 | 1010.0 |
| 20260504014112 | 26 | 116 | 3.2 | 4.8 | 0.00 | 0.00 | 0.00 | 75 | 1009.0 |
| 20260504013612 | 26 | 131 | 3.2 | 3.2 | 0.00 | 0.00 | 0.00 | 76 | 1009.0 |
| 20260504013111 | 26 | 126 | 3.2 | 4.8 | 0.00 | 0.00 | 0.00 | 76 | 1009.0 |
| 20260504012611 | 26 | 74 | 1.6 | 3.2 | 0.00 | 0.00 | 0.00 | 76 | 1009.0 |
| 20260504012111 | 26 | 117 | 3.2 | 4.8 | 0.00 | 0.00 | 0.00 | 77 | 1009.0 |
| 20260504011611 | 25 | 74 | 1.6 | 1.6 | 0.00 | 0.00 | 0.00 | 77 | 1009.0 |
| 20260504011112 | 25 | 75 | 3.2 | 4.8 | 0.00 | 0.00 | 0.00 | 77 | 1009.0 |
| 20260504010612 | 25 | 87 | 1.6 | 3.2 | 0.00 | 0.00 | 0.00 | 78 | 1009.0 |
| 20260504010112 | 25 | 149 | 0.0 | 1.6 | 0.00 | 0.00 | 0.00 | 78 | 1009.0 |
| 20260504005611 | 25 | 146 | 0.0 | 0.0 | 0.00 | 0.00 | 0.00 | 79 | 1009.0 |
| 20260504005112 | 25 | 73 | 1.6 | 1.6 | 0.00 | 0.00 | 0.00 | 79 | 1009.0 |
| 20260504004612 | 25 | 57 | 9.7 | 9.7 | 0.00 | 0.00 | 0.00 | 79 | 1009.0 |
| 20260504004111 | 25 | 41 | 1.6 | 3.2 | 0.00 | 0.00 | 0.00 | 80 | 1009.0 |
| 20260504003612 | 25 | 74 | 1.6 | 1.6 | 0.00 | 0.00 | 0.00 | 80 | 1009.0 |
| 20260504003111 | 25 | 81 | 1.6 | 1.6 | 0.00 | 0.00 | 0.00 | 81 | 1009.0 |
| 20260504002611 | 25 | 16 | 4.8 | 4.8 | 0.00 | 0.00 | 0.00 | 80 | 1009.0 |
| 20260504002113 | 25 | 88 | 0.0 | 1.6 | 0.00 | 0.00 | 0.00 | 80 | 1008.0 |
| 20260504001611 | 25 | 13 | 1.6 | 1.6 | 0.00 | 0.00 | 0.00 | 79 | 1008.0 |
| 20260504001112 | 25 | 248 | 0.0 | 0.0 | 0.00 | 0.00 | 0.00 | 79 | 1008.0 |
| 20260504000611 | 25 | 248 | 1.6 | 1.6 | 0.00 | 0.00 | 0.00 | 79 | 1008.0 |
| 20260504000112 | 25 | 244 | 1.6 | 3.2 | 0.00 | 0.00 | 0.00 | 79 | 1008.0 |
| 20260503235612 | 25 | 239 | 1.6 | 1.6 | 0.00 | 0.00 | 0.00 | 79 | 1008.0 |
| 20260503235113 | 25 | 228 | 0.0 | 1.6 | 0.00 | 0.00 | 0.00 | 79 | 1008.0 |
| 20260503234611 | 25 | 193 | 0.0 | 0.0 | 0.00 | 0.00 | 0.00 | 78 | 1008.0 |
| 20260503234111 | 25 | 161 | 0.0 | 0.0 | 0.00 | 0.00 | 0.00 | 78 | 1008.0 |
| 20260503233611 | 25 | 172 | 0.0 | 0.0 | 0.00 | 0.00 | 0.00 | 77 | 1008.0 |
| 20260503233112 | 25 | 163 | 1.6 | 1.6 | 0.00 | 0.00 | 0.00 | 77 | 1008.0 |
| 20260503232611 | 25 | 160 | 3.2 | 3.2 | 0.00 | 0.00 | 0.00 | 77 | 1008.0 |
| 20260503232112 | 26 | 242 | 0.0 | 0.0 | 0.00 | 0.00 | 0.00 | 77 | 1008.0 |
| 20260503231611 | 26 | 242 | 0.0 | 0.0 | 0.00 | 0.00 | 0.00 | 76 | 1008.0 |
| 20260503231112 | 26 | 242 | 1.6 | 1.6 | 0.00 | 0.00 | 0.00 | 76 | 1008.0 |
| 20260503230612 | 26 | 241 | 1.6 | 1.6 | 0.00 | 0.00 | 0.00 | 76 | 1008.0 |
| 20260503230111 | 26 | 241 | 1.6 | 1.6 | 0.00 | 0.00 | 0.00 | 75 | 1008.0 |
| 20260503225611 | 26 | 217 | 3.2 | 3.2 | 0.00 | 0.00 | 0.00 | 75 | 1008.0 |
| 20260503225112 | 26 | 229 | 6.4 | 6.4 | 0.00 | 0.00 | 0.00 | 75 | 1008.0 |
| 20260503224611 | 26 | 219 | 4.8 | 6.4 | 0.00 | 0.00 | 0.00 | 75 | 1008.0 |
| 20260503224111 | 26 | 197 | 1.6 | 3.2 | 0.00 | 0.00 | 0.00 | 75 | 1007.0 |
| 20260503223611 | 26 | 182 | 3.2 | 4.8 | 0.00 | 0.00 | 0.00 | 75 | 1007.0 |
| 20260503223111 | 26 | 188 | 4.8 | 6.4 | 0.00 | 0.00 | 0.00 | 76 | 1008.0 |
| 20260503222611 | 26 | 193 | 4.8 | 4.8 | 0.00 | 0.00 | 0.00 | 76 | 1007.0 |
| 20260503222111 | 26 | 183 | 1.6 | 1.6 | 0.00 | 0.00 | 0.00 | 76 | 1007.0 |
| 20260503221611 | 25 | 199 | 1.6 | 1.6 | 0.00 | 0.00 | 0.00 | 77 | 1008.0 |
| 20260503221111 | 25 | 197 | 1.6 | 1.6 | 0.00 | 0.00 | 0.00 | 77 | 1007.0 |
| 20260503220611 | 25 | 172 | 0.0 | 0.0 | 0.00 | 0.00 | 0.00 | 77 | 1008.0 |
| 20260503220115 | 25 | 195 | 0.0 | 0.0 | 0.00 | 0.00 | 0.00 | 76 | 1008.0 |
| 20260503215611 | 25 | 191 | 0.0 | 0.0 | 0.00 | 0.00 | 0.00 | 76 | 1008.0 |
| 20260503215111 | 25 | 195 | 0.0 | 0.0 | 0.00 | 0.00 | 0.00 | 76 | 1008.0 |
| 20260503214612 | 25 | 160 | 0.0 | 0.0 | 0.00 | 0.00 | 0.00 | 75 | 1008.0 |
| 20260503214112 | 25 | 180 | 0.0 | 0.0 | 0.00 | 0.00 | 0.00 | 75 | 1008.0 |
| 20260503213612 | 25 | 177 | 0.0 | 0.0 | 0.00 | 0.00 | 0.00 | 74 | 1008.0 |
| 20260503213112 | 25 | 152 | 0.0 | 0.0 | 0.00 | 0.00 | 0.00 | 74 | 1008.0 |
| 20260503212611 | 25 | 182 | 0.0 | 0.0 | 0.00 | 0.00 | 0.00 | 75 | 1008.0 |
| 20260503212111 | 25 | 181 | 0.0 | 0.0 | 0.00 | 0.00 | 0.00 | 75 | 1008.0 |
| 20260503211611 | 25 | 173 | 1.6 | 3.2 | 0.00 | 0.00 | 0.00 | 75 | 1008.0 |
| 20260503211111 | 25 | 182 | 1.6 | 1.6 | 0.00 | 0.00 | 0.00 | 76 | 1008.0 |
| 20260503210611 | 25 | 155 | 3.2 | 3.2 | 0.00 | 0.00 | 0.00 | 76 | 1008.0 |
| 20260503210111 | 25 | 196 | 0.0 | 0.0 | 0.00 | 0.00 | 0.00 | 74 | 1009.0 |
| 20260503205611 | 26 | 214 | 0.0 | 0.0 | 0.00 | 0.00 | 0.00 | 74 | 1009.0 |
| 20260503205111 | 25 | 265 | 3.2 | 3.2 | 0.00 | 0.00 | 0.00 | 74 | 1008.0 |
| 20260503204612 | 25 | 268 | 0.0 | 0.0 | 0.00 | 0.00 | 0.00 | 74 | 1009.0 |
| 20260503204111 | 25 | 147 | 1.6 | 1.6 | 0.00 | 0.00 | 0.00 | 74 | 1009.0 |
| 20260503203612 | 25 | 135 | 6.4 | 6.4 | 0.00 | 0.00 | 0.00 | 74 | 1009.0 |
| 20260503203111 | 25 | 196 | 1.6 | 1.6 | 0.00 | 0.00 | 0.00 | 74 | 1009.0 |
| 20260503202611 | 25 | 229 | 4.8 | 4.8 | 0.00 | 0.00 | 0.00 | 73 | 1009.0 |
| 20260503202113 | 25 | 294 | 6.4 | 11.3 | 0.00 | 0.00 | 0.00 | 73 | 1009.0 |
| 20260503201612 | 25 | 265 | 6.4 | 6.4 | 0.00 | 0.00 | 0.00 | 73 | 1009.0 |
| 20260503201111 | 25 | 224 | 4.8 | 4.8 | 0.00 | 0.00 | 0.00 | 73 | 1009.0 |
| 20260503200611 | 25 | 259 | 4.8 | 4.8 | 0.00 | 0.00 | 0.00 | 73 | 1009.0 |
| 20260503200111 | 26 | 254 | 3.2 | 3.2 | 0.00 | 0.00 | 0.00 | 73 | 1009.0 |
| 20260503195611 | 26 | 221 | 1.6 | 1.6 | 0.00 | 0.00 | 0.00 | 72 | 1010.0 |
| 20260503195111 | 26 | 228 | 1.6 | 1.6 | 0.00 | 0.00 | 0.00 | 72 | 1010.0 |
| 20260503194611 | 26 | 229 | 1.6 | 1.6 | 0.00 | 0.00 | 0.00 | 72 | 1010.0 |
| 20260503194111 | 26 | 223 | 0.0 | 1.6 | 0.00 | 0.00 | 0.00 | 72 | 1010.0 |
| 20260503193611 | 26 | 228 | 1.6 | 3.2 | 0.00 | 0.00 | 0.00 | 72 | 1010.0 |
| 20260503193111 | 26 | 212 | 0.0 | 0.0 | 0.00 | 0.00 | 0.00 | 72 | 1010.0 |
| 20260503192611 | 26 | 208 | 0.0 | 0.0 | 0.00 | 0.00 | 0.00 | 72 | 1010.0 |
| 20260503192112 | 26 | 200 | 0.0 | 0.0 | 0.00 | 0.00 | 0.00 | 72 | 1010.0 |
| 20260503191611 | 26 | 178 | 1.6 | 1.6 | 0.00 | 0.00 | 0.00 | 72 | 1010.0 |
| 20260503191112 | 26 | 168 | 3.2 | 4.8 | 0.00 | 0.00 | 0.00 | 71 | 1010.0 |
| 20260503190612 | 26 | 126 | 4.8 | 4.8 | 0.00 | 0.00 | 0.00 | 71 | 1010.0 |
| 20260503190112 | 26 | 174 | 1.6 | 1.6 | 0.00 | 0.00 | 0.00 | 72 | 1010.0 |
| 20260503185612 | 26 | 189 | 3.2 | 3.2 | 0.00 | 0.00 | 0.00 | 72 | 1010.0 |
| 20260503185112 | 26 | 102 | 6.4 | 9.7 | 0.00 | 0.00 | 0.00 | 72 | 1010.0 |
| 20260503184611 | 26 | 120 | 9.7 | 11.3 | 0.00 | 0.00 | 0.00 | 72 | 1011.0 |
| 20260503184111 | 26 | 122 | 4.8 | 6.4 | 0.00 | 0.00 | 0.00 | 72 | 1011.0 |
| 20260503183612 | 26 | 77 | 0.0 | 1.6 | 0.00 | 0.00 | 0.00 | 72 | 1011.0 |
| 20260503183111 | 26 | 98 | 1.6 | 4.8 | 0.00 | 0.00 | 0.00 | 72 | 1011.0 |
| 20260503182612 | 26 | 61 | 9.7 | 12.9 | 0.00 | 0.00 | 0.00 | 73 | 1011.0 |
| 20260503182112 | 26 | 77 | 4.8 | 4.8 | 0.00 | 0.00 | 0.00 | 73 | 1011.0 |
| 20260503181611 | 26 | 40 | 6.4 | 6.4 | 0.00 | 0.00 | 0.00 | 73 | 1011.0 |
| 20260503181116 | 26 | 88 | 4.8 | 9.7 | 0.00 | 0.00 | 0.00 | 74 | 1011.0 |
| 20260503180611 | 26 | 46 | 6.4 | 11.3 | 0.00 | 0.00 | 0.00 | 75 | 1011.0 |
| 20260503180112 | 26 | 47 | 12.9 | 24.1 | 0.00 | 0.00 | 0.00 | 75 | 1011.0 |
| 20260503175611 | 26 | 71 | 17.7 | 25.7 | 0.00 | 0.00 | 0.00 | 74 | 1012.0 |
| 20260503175112 | 26 | 53 | 6.4 | 6.4 | 0.00 | 0.00 | 0.00 | 74 | 1012.0 |
| 20260503174611 | 27 | 55 | 6.4 | 14.5 | 0.00 | 0.00 | 0.00 | 74 | 1011.0 |
| 20260503174112 | 27 | 83 | 3.2 | 4.8 | 0.00 | 0.00 | 0.00 | 73 | 1011.0 |
| 20260503173611 | 27 | 55 | 4.8 | 9.7 | 0.00 | 0.00 | 0.00 | 72 | 1011.0 |
| 20260503173112 | 27 | 80 | 3.2 | 6.4 | 0.00 | 0.00 | 0.00 | 71 | 1011.0 |
| 20260503172611 | 27 | 61 | 1.6 | 1.6 | 0.00 | 0.00 | 0.00 | 71 | 1011.0 |
| 20260503172112 | 27 | 117 | 0.0 | 3.2 | 0.00 | 0.00 | 0.00 | 72 | 1010.0 |
| 20260503171611 | 27 | 97 | 8.0 | 14.5 | 0.00 | 0.00 | 0.00 | 72 | 1011.0 |
| 20260503171111 | 27 | 19 | 9.7 | 12.9 | 0.00 | 0.00 | 0.00 | 72 | 1010.0 |
| 20260503170611 | 26 | 74 | 9.7 | 12.9 | 0.00 | 0.00 | 0.00 | 72 | 1010.0 |
| 20260503170112 | 26 | 59 | 9.7 | 12.9 | 0.00 | 0.00 | 0.00 | 72 | 1010.0 |
| 20260503160112 | 30 | 232 | 11.3 | 12.9 | 0.00 | 0.00 | 0.00 | 62 | 1008.0 |
| 20260503150613 | 30 | 245 | 8.0 | 11.3 | 0.00 | 0.00 | 0.00 | 59 | 1007.0 |
| 20260503150115 | 30 | 190 | 11.3 | 14.5 | 0.00 | 0.00 | 0.00 | 60 | 1007.0 |
| 20260503140115 | 32 | 251 | 14.5 | 22.5 | 0.00 | 0.00 | 0.00 | 59 | 1006.0 |
| 20260503131115 | 34 | 225 | 11.3 | 14.5 | 0.00 | 0.00 | 0.00 | 53 | 1006.0 |
| 20260503130611 | 35 | 214 | 4.8 | 11.3 | 0.00 | 0.00 | 0.00 | 52 | 1006.0 |
| 20260503130112 | 35 | 243 | 9.7 | 12.9 | 0.00 | 0.00 | 0.00 | 51 | 1005.0 |
| 20260503120113 | 36 | 274 | 3.2 | 3.2 | 0.00 | 0.00 | 0.00 | 49 | 1004.0 |
| 20260503110621 | 38 | 268 | 4.8 | 11.3 | 0.00 | 0.00 | 0.00 | 44 | 1004.0 |
| 20260503110113 | 38 | 245 | 3.2 | 4.8 | 0.00 | 0.00 | 0.00 | 44 | 1004.0 |
| 20260503100113 | 38 | 245 | 1.6 | 1.6 | 0.00 | 0.00 | 0.00 | 43 | 1005.0 |